This demonstration page uses our WeatherBlox Daily Observations layout. Learn more.

Hourly Observations for December 9, 2019

Temp ( °F °C ) Dew Point ( °F °C ) Humidity (%) Winds ( mph kmh ) Pressure ( in mb ) Visibility ( mi km ) Precip ( " mm )
12:54 am 00:54 Clear 31 -0.6 28 -2.2 89 89 Calm 29.61 1003 10 16.0934 0 0
1:54 am 01:54 Mostly Clear 34 1.1 30 -1.1 85 85 NNW 3 6 29.58 1002 10 16.0934 0 0
2:54 am 02:54 Mostly Cloudy 35 1.7 31 -0.6 85 85 NE 3 6 29.62 1003 9 14.48406 0 0
3:54 am 03:54 Mostly Cloudy 39 3.9 33 0.6 79 79 NNW 22 35 29.65 1004 10 16.0934 0 0
4:06 am 04:06 Mostly Cloudy 39 3.9 33 0.6 79 79 NNW 30 48 29.68 1005 9 14.48406 0 0
4:28 am 04:28 Cloudy 33 0.6 29 -1.7 85 85 NNW 22 35 29.74 1007 7 11.26538 0 0
4:54 am 04:54 Cloudy 31 -0.6 26 -3.3 82 82 NNW 31 50 29.72 1006 10 16.0934 0 0
5:19 am 05:19 Cloudy 29 -1.7 23 -5 78 78 NNW 37 59 29.79 1009 10 16.0934 0 0
5:54 am 05:54 Mostly Cloudy 26 -3.3 18 -7.8 71 71 NNW 24 39 29.8 1009 10 16.0934 0 0
6:04 am 06:04 Mostly Cloudy 25 -3.9 16 -8.9 69 69 NNW 24 39 29.86 1011 10 16.0934 0 0
6:54 am 06:54 Cloudy 22 -5.6 13 -10.6 68 68 NNW 30 48 29.87 1011 10 16.0934 0 0
7:13 am 07:13 Windy with Snow Likely 20 -6.7 13 -10.6 74 74 NNW 30 48 29.95 1014 1.75 2.816345 0.001 0.001
7:26 am 07:26 Mostly Cloudy with Scattered Snow Showers 19 -7.2 14 -10 81 81 NNW 24 39 29.97 1015 0.75 1.207005 0.001 0.001
7:36 am 07:36 Mostly Cloudy with Snow 17 -8.3 13 -10.6 84 84 NW 22 35 29.97 1015 0.5 0.80467 0.001 0.001
7:50 am 07:50 Mostly Cloudy with Snow 16 -9 12 -11 86 86 NNW 29 46 29.98 1015 0.5 0.80467 0.001 0.001
7:54 am 07:54 Mostly Cloudy with Snow 16 -8.9 12 -11.1 84 84 NNW 25 41 29.91 1013 0.5 0.80467 0.001 0.001
8:06 am 08:06 Mostly Cloudy with Snow 17 -8.3 12 -11.1 80 80 NNW 20 31 29.99 1016 0.5 0.80467 0.01 0.254
8:20 am 08:20 Cloudy with Light Snow 17 -8.3 12 -11.1 80 80 NNW 15 24 29.99 1016 1.5 2.41401 0.01 0.254
8:24 am 08:24 Cloudy with Light Snow 17 -8.3 12 -11.1 80 80 NNW 15 24 29.99 1016 4 6.43736 0.01 0.254
8:35 am 08:35 Windy with Snow Likely 18 -7.8 11 -11.7 74 74 NNW 25 41 29.99 1016 4 6.43736 0.01 0.254
8:54 am 08:54 Windy with Snow Likely 18 -7.8 11 -11.7 74 74 NNW 20 31 29.95 1014 4 6.43736 0.01 0.254
9:24 am 09:24 Partly Cloudy with Scattered Snow Showers 18 -7.8 10 -12.2 71 71 NNW 21 33 30.02 1017 4 6.43736 0.001 0.001
9:54 am 09:54 Partly Cloudy with Isolated Snow Showers 19 -7.2 10 -12.2 68 68 NW 22 35 30 1016 5 8.0467 0.001 0.001
10:54 am 10:54 Sunny 19 -7.2 9 -12.8 65 65 NNW 22 35 30.03 1017 10 16.0934 0.001 0.001
11:54 am 11:54 Sunny 20 -6.7 9 -12.8 62 62 NW 22 35 30.02 1017 10 16.0934 0 0
12:54 pm 12:54 Sunny 22 -5.6 9 -12.8 57 57 NNW 23 37 30.02 1017 10 16.0934 0 0
1:54 pm 13:54 Sunny 22 -5.6 9 -12.8 57 57 NNW 22 35 30.04 1017 10 16.0934 0 0
2:54 pm 14:54 Sunny 23 -5 9 -12.8 55 55 NNW 15 24 30.06 1018 10 16.0934 0 0
3:54 pm 15:54 Sunny 23 -5 8 -13.3 53 53 NW 16 26 30.08 1019 10 16.0934 0 0
4:54 pm 16:54 Sunny 22 -5.6 9 -12.8 57 57 NW 13 20 30.11 1020 10 16.0934 0 0
5:54 pm 17:54 Clear 20 -6.7 9 -12.8 62 62 WNW 5 7 30.12 1020 10 16.0934 0 0
6:54 pm 18:54 Clear 19 -7.2 9 -12.8 65 65 WNW 5 7 30.13 1020 10 16.0934 0 0
7:54 pm 19:54 Clear 17 -8.3 9 -12.8 70 70 SSW 3 6 30.14 1021 10 16.0934 0 0
8:54 pm 20:54 Clear 14 -10 7 -13.9 73 73 S 6 9 30.14 1021 10 16.0934 0 0
9:54 pm 21:54 Clear 14 -10 8 -13.3 77 77 S 3 6 30.15 1021 10 16.0934 0 0
10:54 pm 22:54 Clear 14 -10 9 -12.8 80 80 S 5 7 30.16 1021 10 16.0934 0 0
11:54 pm 23:54 Clear 14 -10 9 -12.8 80 80 S 7 11 30.15 1021 10 16.0934 0 0

Powered by AerisWeather